Showing default

KUIPER-00439, 68941

Orbit data source: Space-Track

KUIPER-00439, 68941 is a payload satellite owned by Kuiper Systems (US) in LEO that was launched on Thu, 30 Apr 2026 UTC via an ARIANE 64 launch vehicle from the French Guiana (FRGUI). Payload-class satellites include a variety of spacecraft equipped with specific instruments for various scientific and technological missions. These include communications satellites like Starlink; space stations such as the ISS; scientific satellites like the Hubble; Earth observation satellites from companies like Planet Labs, Umbra, and HawkEye 360; GPS; miniature CubeSats for education and research; and military/defense satellites.

Loading next visibility...
Identifier
68941, 2026-098Y
Orbit
LEO
Country
Flag of USUS
Related business
Manufacturer
Kuiper Systems
Mission
Operational spacecraft
Bus & Motor
KUIPER, Unknown motor
Mass
~490 kg wet, ~490 kg dry
Launch date (UTC)
2026-04-30 (2 months ago)
Launch vehicle
ARIANE 64
Launch site
French Guiana (FRGUI)
Object type
Payload
Rocket body
Debris
Shape & HBR
Unknown shape, 3.4 m
Radar Cross Section
Large (>1 m²)

Expand to show TLE details & history
Last TLE update: 1 day ago

TLE from 1 day ago
0 KUIPER-00439
1 68941U 26098Y   26170.94952081  .00020792  00000-0  66274-3 0  9995
2 68941  51.8778  55.0093 0006378 163.2961 196.8235 15.32480273  7769
Epoch: 2026-06-19T22:47Z
TLE epoch observation values (Epoch: 2026-06-19T22:47:18.597Z)
Latitude
-0.00004°
Longitude
165.01063°
Altitude
473.357 km
Speed
7.628 km/s
True Right ascension
03h 40m 02s
True Declination
0° 00' 00"
Sunlit
Object was in daylight at epoch
Visualization orbit readout
Latitude
Unknown
Longitude
Unknown
Altitude
Unknown
Speed
Unknown
Apparent Right ascension
Unknown
Apparent Declination
Unknown
Sunlit
N/A
Visualization observer readout
Local Sidereal Time
10:18:34
Azimuth
Unknown
Elevation
Unknown
Doppler factor
Unknown
Orbital elements
Apogee altitude
473.247 km
Perigee altitude
464.513 km
Semi-major axis
6,847.017 km
Eccentricity
0.00064
Inclination
51.8778°
RAAN
55.0093°
Arg. of periapsis
163.2961°
True anomaly
196.80236°
Mean anomaly
196.8235°
Eccentric anomaly
196.81293°
Mean motion
3.83081 °/min
Orbital period
93.97 mins
BSTAR
0.00066274
Loading maneuver chart data...
Computing Atmospheric mass density...
Loading historical data...
Loading historical data...
Loading historical data...
Loading historical data...
Loading historical data...
Loading historical data...
Loading historical data...

Documentation

Showing up to 5 results
|